#timestamp,LO_Frequency,Hit,StdDev 
1596049215.9,286047001.1,N
1596049235.7,286047000.8,N
1596049255.6,286047000.4,N
1596049275.4,286047001.1,N
1596049295.3,286047001.2,N
1596049315.1,286046998.5,N
1596049316.0,286046998.5,N
1596049335.8,286046998.3,N
1596049355.7,286047000.8,N
1596049375.5,286047000.0,N
1596049395.4,286047000.2,N
1596049415.2,286046999.8,N
1596049435.0,286047002.3,N
1596049435.9,286047002.3,N
1596049455.8,286047002.4,N
1596049475.6,286047002.3,N
1596049495.5,286047002.8,N
1596049515.3,286047000.3,N
1596049535.1,286047000.5,N
1596049555.9,286047000.3,N
1596049575.7,286047000.4,N
1596049595.6,286047000.9,N
1596049615.4,286047000.8,N
1596049635.2,286046999.7,N
1596049655.1,286047002.3,N
1596049656.0,286047002.3,N
1596049675.8,286046999.7,N
1596049695.7,286047002.5,N
1596049715.5,286047002.7,N
1596049735.3,286047002.7,N
1596049755.2,286047002.3,N
1596049775.0,286047000.2,N
1596049775.9,286047000.2,N
1596049795.8,286047000.0,N
1596049815.6,286047002.2,N
1596049835.4,286047002.5,N
1596049855.3,286047002.5,N
1596049875.1,286047002.2,N
1596049895.9,286046999.8,N
1596049915.7,286047002.4,N
1596049935.5,286047000.1,N
1596049955.4,286047000.1,N
1596049975.2,286047002.5,N
1596049995.0,286047002.3,N
1596049995.9,286047002.3,N
1596050015.8,286047002.7,N
1596050035.6,286047002.5,N
1596050055.5,286047001.9,N
1596050075.3,286047002.3,N
1596050095.1,286047000.1,N
1596050115.9,286047002.2,N
1596050135.7,286047002.5,N
1596050155.6,286047002.4,N
1596050175.4,286047002.0,N
1596050195.2,286047002.1,N
1596050215.1,286047002.5,N
1596050216.0,286047002.5,N
1596050235.8,286047002.4,N
1596050255.7,286047002.3,N
1596050275.5,286047002.1,N
1596050295.3,286047002.6,N
1596050315.2,286047002.8,N
1596050335.9,286047002.0,N
1596050355.7,286047001.6,N
1596050375.6,286047004.1,Y
1596050395.4,286047001.0,P
1596050415.3,286046998.5,P
1596050435.1,286047000.7,N
1596050436.0,286047000.7,N
1596050455.8,286047000.7,N
1596050475.7,286047000.6,N
1596050495.5,286047000.3,N
1596050515.4,286047001.1,N
1596050535.2,286047001.0,N
1596050555.0,286047000.8,N
1596050555.9,286047000.8,N
1596050575.8,286046998.1,N
1596050595.6,286047000.8,N
1596050615.5,286047000.7,N
1596050635.3,286047001.0,N
1596050655.1,286046998.9,N
1596050675.9,286046998.5,N
1596050695.7,286046996.6,Y
1596050715.6,286046997.0,P
1596050735.4,286046996.8,N
1596050755.2,286046997.0,N
1596050775.1,286046999.5,N
1596050776.0,286046999.5,N
1596050795.8,286046997.7,N
1596050815.6,286046997.4,N
1596050835.5,286046997.4,N
1596050855.3,286046997.9,N
1596050875.2,286046995.0,Y
1596050895.0,286046996.7,P
1596050895.9,286046996.7,P
1596050915.7,286046996.9,P
1596050935.6,286046998.8,N
1596050955.4,286046996.7,Y
1596050975.3,286047000.9,P
1596050995.1,286047001.2,N
1596051015.8,286046998.1,N
1596051035.7,286047001.0,N
1596051055.5,286046998.5,N
1596051075.4,286047001.0,N
1596051095.2,286047000.0,N
1596051115.0,286047001.0,N
1596051115.9,286047001.0,N
1596051135.8,286047001.2,N
1596051155.6,286046998.5,N
1596051175.4,286046999.8,N
1596051195.3,286047000.0,N
1596051215.1,286047000.8,N
1596051235.9,286046998.6,N
1596051255.7,286046998.3,N
1596051275.5,286046998.9,N
1596051295.4,286046998.5,N
1596051315.2,286046998.6,N
1596051335.0,286047000.8,N
1596051335.9,286047000.8,N
1596051355.8,286046998.6,N
1596051375.6,286046999.3,N
1596051395.5,286046996.5,N
1596051415.3,286046997.0,N
1596051435.1,286046998.4,N
1596051455.9,286046998.4,N
1596051475.7,286047001.1,N
1596051495.6,286046998.6,N
1596051515.4,286046999.5,N
1596051535.2,286046996.9,N
1596051555.1,286046996.6,N
1596051556.0,286046996.6,N
1596051575.8,286046998.5,N
1596051595.7,286046998.8,N
1596051615.5,286047000.7,N
1596051635.3,286047000.9,N
1596051655.2,286046998.4,N
1596051675.0,286046998.5,N
1596051675.9,286046998.5,N
1596051695.8,286046996.6,N
1596051715.6,286047000.7,N
1596051735.4,286047001.2,N
1596051755.3,286047000.9,N
1596051775.1,286047001.2,N
1596051795.9,286047000.7,N
1596051815.7,286046998.2,N
1596051835.5,286047000.8,N
1596051855.4,286047000.9,N
1596051875.2,286047000.0,N
1596051895.0,286047002.1,N
1596051895.9,286047002.1,N
1596051915.8,286047001.6,N
1596051935.6,286047001.6,N
1596051955.5,286047004.3,N
1596051975.3,286047004.2,N
1596051995.1,286047004.2,N
1596052015.9,286047001.3,N
1596052035.7,286047003.5,N
1596052055.6,286047004.3,N
1596052075.4,286047003.4,N
1596052095.2,286047003.4,N
1596052115.1,286047004.2,N
1596052116.0,286047004.2,N
1596052135.8,286047003.0,N
1596052155.7,286047003.6,N
1596052175.5,286047003.1,N
1596052195.3,286047003.7,N
1596052215.2,286047003.7,N
1596052235.0,286047003.4,N
1596052235.9,286047003.4,N
1596052255.8,286047005.2,Y
1596052275.6,286047004.0,P
1596052295.4,286047003.8,P
1596052315.3,286047001.8,N
1596052335.1,286047002.7,N
1596052355.8,286047002.5,N
1596052375.7,286047001.6,N
1596052395.5,286047004.1,Y
1596052415.4,286046999.7,P
1596052435.2,286047002.8,N
1596052455.0,286047000.2,N
1596052455.9,286047000.2,N
1596052475.8,286047000.8,N
1596052495.6,286046999.9,N
1596052515.5,286047001.0,N
1596052535.3,286047000.1,N
1596052555.1,286047002.4,N
1596052575.9,286047000.0,N
1596052595.7,286047002.4,N
1596052615.5,286047002.0,N
1596052635.4,286047002.7,N
1596052655.2,286047002.1,N
1596052675.1,286047002.0,N
1596052676.0,286047002.0,N
1596052695.8,286047002.1,N
1596052715.6,286047002.5,N
1596052735.5,286047002.4,N
1596052755.3,286047002.6,N
1596052775.1,286047001.6,N
1596052795.9,286047001.4,N
